Location: Unspecified
(54.1780°N, 0.0000°E)
Time: 09:21:35
(UTC+00:00)

Transit 2A - Pass Details

Date: 25 June 2019
Orbit: 597 x 962 km, 66.7° (Epoch: 24 August)

Event Time Altitude Azimuth Distance (km) Brightness Sun altitude
Rises 03:55:38 0° 290° (WNW) 3,622 9.2 2.3°
Reaches altitude 10° 03:58:46 10° 304° (NW) 2,644 8.6 2.6°
Maximum altitude 04:03:44 25° 357° (N) 1,750 8.4 3.2°
Drops below altitude 10° 04:08:24 10° 51° (NE) 2,479 11.5 3.7°
Sets 04:11:15 0° 66° (ENE) 3,348 11.5 4.1°
